Weather in Sergeyevka

Russia / Omsk Oblast     54°48′45″N   74°52′17″E
temp.,
°C
wind,
m/s
gust,
m/s
humid.,
%
clouds,
%
prec.,
mm/h
press.,
hPa
HPBL,
m
20 june, sun
sun2000:00+8wnw35735 0.0 101066
03:00+7wnw34735 0.0 101063
06:00+8w36770 0.0 1009134
09:00+15wsw455612 0.0 1008581
12:00+18sw564346 0.0 10062293
15:00+18ssw6948100 0.0 10032164
18:00+14ssw101474100 0.0 999942
21:00+12wsw499693 10.8 997513
21 june, mon
mon2100:00+9wnw513935 10.9 999468
03:00+6wnw5118882 0.0 999369
06:00+7wnw5891100 0.0 1000524
09:00+8wnw458488 0.1 1002611
12:00+11wnw446999 0.3 10031187
15:00+11nnw6674100 0.2 1006854
18:00+11nne61288100 1.1 10081002
21:00+11nnw499098 0.2 1009371
22 june, tue
tue2200:00+10nnw5129083 0.3 1010297
03:00+8nnw513925 0.1 1011329
06:00+7nnw411862 0.1 1013274
09:00+13nnw696662 0.0 1013694
12:00+16nnw675662 0.3 10131597
15:00+16nw666099 2.0 10131539
18:00+15nnw556310 3.2 10131124
21:00+12nw34755 0.0 101347
23 june, wed
wed2300:00+9nnw237910 0.0 101322
03:00+8n3384100 0.0 101335
06:00+8n3787100 0.0 1013208
09:00+12n457223 0.4 1012539
12:00+15n566298 2.1 10121401
15:00+16n6657100 1.6 10121594
18:00+16n5662100 2.3 10131321
21:00+12nnw4885100 1.0 1013219
24 june, thu
thu2400:00+10n4108912 1.4 1013220
03:00+8nnw499392 0.0 1013173
06:00+8nnw4989100 0.0 1014236
09:00+12nnw5874100 0.0 1015549
12:00+14nnw7965100 0.4 10141649
15:00+14nnw5970100 0.7 10141705
18:00+11n4984100 0.9 1015717
21:00+10nw41089100 0.5 1016493